Regional Weather Roundup
Issued by NWS Northern Indiana

Home | Current Version | Previous Version | Text Only | Print | Product List | Glossary Off
Versions: 1 2 3 4 5 6 7 8 9 10 11 12 13 14 15 16 17 18 19 20 21 22 23 24 25 26 27 28 29 30 31 32 33 34 35 36 37 38 39 40 41 42 43 44 45 46 47 48 49 50

000
ASUS43 KIWX 300000
RWRIWX

KIWX WEATHER ROUNDUP
NATIONAL WEATHER SERVICE NORTHERN INDIANA
800 PM EDT MON SEP 29 2014

NOTE: "FAIR" INDICATES FEW OR NO CLOUDS BELOW 12,000 FEET WITH NO
SIGNIFICANT WEATHER AND/OR OBSTRUCTIONS TO VISIBILITY.

* THESE STATIONS ARE NOT UNDER NWS QUALITY CONTROL. THEY ALSO MAY NOT
  REPORT WEATHER SUCH AS PRECIPITATION OR FOG.

INZ001>027-300100-
NORTHERN INDIANA

CITY           SKY/WX    TMP DP  RH WIND       PRES   REMARKS
GARY*          PTCLDY    72  59  64 VRB5      29.92S
SOUTH BEND     NOT AVBL
ELKHART*       CLEAR     66  57  72 CALM      29.93F
WARSAW*        CLEAR     64  59  82 CALM      29.94S
ANGOLA*        CLEAR     66  61  82 CALM      29.93F
FORT WAYNE     CLEAR     66  56  70 CALM      29.94S
6HR MIN TEMP:  66; 6HR MAX TEMP:  80;


$$
INZ028>050-300100-
CENTRAL INDIANA

CITY           SKY/WX    TMP DP  RH WIND       PRES   REMARKS
LAFAYETTE      CLEAR     69  60  73 CALM      29.93S
6HR MIN TEMP:  68; 6HR MAX TEMP:  81;

KOKOMO*        CLEAR     68  55  64 CALM      29.94F
6HR MIN TEMP:  68; 6HR MAX TEMP:  81;

MUNCIE*        CLEAR     67  53  61 CALM      29.95S
6HR MIN TEMP:  67; 6HR MAX TEMP:  82;

INDIANAPOLIS   CLEAR     73  50  44 NW5       29.94S
6HR MIN TEMP:  73; 6HR MAX TEMP:  82;


$$
MIZ043>046-050>051-056>058-064>065-071>073-077>080-300100-
SOUTHWEST LOWER MICHIGAN

CITY           SKY/WX    TMP DP  RH WIND       PRES   REMARKS
BATTLE CREEK   CLEAR     67  57  70 SW6       29.92F
6HR MIN TEMP:  67; 6HR MAX TEMP:  78;

COLDWATER*     CLEAR     69  58  67 SW3       29.93S
6HR MIN TEMP:  69; 6HR MAX TEMP:  80;

HILLSDALE*     CLEAR     62  57  82 CALM      29.93F
HOLLAND        CLOUDY    61  57  87 NW7       29.95S
6HR MIN TEMP:  61; 6HR MAX TEMP:  77;

GRAND RAPIDS   CLOUDY    69  61  75 NW14      29.92R
6HR MIN TEMP:  69; 6HR MAX TEMP:  79;

KALAMAZOO      CLEAR     68  56  65 W5        29.92F
6HR MIN TEMP:  68; 6HR MAX TEMP:  79;

STURGIS*         N/A     64  59  82 CALM      29.93S
THREE RIVERS*  FAIR      67  58  72 CALM      29.92S
6HR MIN TEMP:  67; 6HR MAX TEMP:  79;


$$
OHZ001>008-015>018-024>025-300100-
NORTHWEST OHIO

CITY           SKY/WX    TMP DP  RH WIND       PRES   REMARKS
DEFIANCE       CLEAR     67  55  65 CALM      29.92S
6HR MIN TEMP:  67; 6HR MAX TEMP:  80;

FINDLAY        CLEAR     70  51  51 W6        29.91S
6HR MIN TEMP:  70; 6HR MAX TEMP:  81;

TOLEDO EXPRESS CLEAR     64  56  75 CALM      29.91S
6HR MIN TEMP:  64; 6HR MAX TEMP:  81;

TOLEDO METCALF CLEAR     67  53  61 E5        29.92S
6HR MIN TEMP:  67; 6HR MAX TEMP:  80;

LIMA           CLEAR     67  53  61 CALM      29.93F
6HR MIN TEMP:  67; 6HR MAX TEMP:  80;


$$
AND FOR LAKE MICHIGAN COASTAL AND OPEN LAKE BUOY OBSERVATIONS

STATION/POSITION TEMP    WIND        PRES    VSBY  WAVE
                 AIR SEA DIR/SP/G                  HT/PER
                 (F)     (DEG/KT/KT) (MB)    (MI)  (FT/S)
CALUMET HARBOR    63     330/ 15/ 24 1012.9R
MICHIGAN CITY     76     190/  3/  3   N/A
SAINT JOSEPH      73      CALM  /  8 1013.2F
SOUTH LAKE BUOY   57 64  350/ 23/ 27 1014.6R         3/ 4
4 MI NW BRIDGMAN  66 65  340/ 17/ 27   N/A           0
MICHIGAN CITY     72 69  180/  2/  4   N/A           0

$$
&&



USA.gov is the U.S. government's official web portal to all federal, state and local government web resources and services.